| time (UTC) | temp F | wind direction | speed MPH | gust MPH | rain 1hr in | rain 24hr in | rain mn in | humidity % | barometer mb |
| 20260504195003 | 78 | 221 | 7.0 | 18.0 | 0.00 | 0.20 | 0.20 | 51 | 1008.1 |
| 20260504194503 | 77 | 222 | 7.0 | 15.0 | 0.00 | 0.20 | 0.20 | 51 | 1008.2 |
| 20260504194003 | 77 | 224 | 6.0 | 15.0 | 0.00 | 0.20 | 0.20 | 49 | 1008.3 |
| 20260504193503 | 78 | 223 | 4.0 | 13.0 | 0.00 | 0.20 | 0.20 | 51 | 1008.4 |
| 20260504193003 | 77 | 221 | 4.0 | 11.0 | 0.00 | 0.20 | 0.20 | 56 | 1008.4 |
| 20260504192503 | 77 | 214 | 6.0 | 18.0 | 0.00 | 0.20 | 0.20 | 55 | 1008.5 |
| 20260504192003 | 77 | 215 | 6.0 | 18.0 | 0.00 | 0.20 | 0.20 | 56 | 1008.5 |
| 20260504191503 | 77 | 218 | 5.0 | 14.0 | 0.00 | 0.20 | 0.20 | 54 | 1008.6 |
| 20260504191003 | 77 | 218 | 5.0 | 15.0 | 0.00 | 0.20 | 0.20 | 53 | 1008.7 |
| 20260504190503 | 77 | 223 | 5.0 | 15.0 | 0.00 | 0.20 | 0.20 | 57 | 1008.8 |
| 20260504190003 | 77 | 216 | 5.0 | 15.0 | 0.00 | 0.20 | 0.20 | 54 | 1008.7 |
| 20260504185503 | 76 | 214 | 5.0 | 15.0 | 0.00 | 0.20 | 0.20 | 55 | 1008.8 |
| 20260504185024 | 76 | 216 | 5.0 | 15.0 | 0.00 | 0.20 | 0.20 | 56 | 1008.7 |
| 20260504184503 | 76 | 211 | 5.0 | 16.0 | 0.00 | 0.20 | 0.20 | 54 | 1008.7 |
| 20260504184003 | 76 | 209 | 5.0 | 16.0 | 0.00 | 0.20 | 0.20 | 56 | 1008.7 |
| 20260504183503 | 75 | 208 | 6.0 | 14.0 | 0.00 | 0.20 | 0.20 | 62 | 1008.7 |
| 20260504183003 | 75 | 206 | 6.0 | 14.0 | 0.00 | 0.20 | 0.20 | 57 | 1008.7 |
| 20260504182503 | 75 | 203 | 5.0 | 14.0 | 0.00 | 0.20 | 0.20 | 57 | 1008.7 |
| 20260504182003 | 75 | 205 | 5.0 | 14.0 | 0.00 | 0.20 | 0.20 | 59 | 1008.8 |
| 20260504181503 | 75 | 213 | 5.0 | 12.0 | 0.00 | 0.20 | 0.20 | 59 | 1008.7 |
| 20260504181003 | 74 | 214 | 5.0 | 16.0 | 0.00 | 0.20 | 0.20 | 59 | 1008.8 |
| 20260504180503 | 74 | 217 | 6.0 | 18.0 | 0.00 | 0.20 | 0.20 | 56 | 1008.9 |
| 20260504180003 | 74 | 217 | 5.0 | 18.0 | 0.00 | 0.20 | 0.20 | 57 | 1008.8 |
| 20260504175503 | 74 | 218 | 4.0 | 13.0 | 0.00 | 0.20 | 0.20 | 60 | 1008.8 |
| 20260504175003 | 74 | 212 | 5.0 | 15.0 | 0.00 | 0.20 | 0.20 | 59 | 1008.9 |
| 20260504174503 | 73 | 209 | 6.0 | 15.0 | 0.00 | 0.20 | 0.20 | 58 | 1008.8 |
| 20260504174024 | 73 | 218 | 5.0 | 15.0 | 0.00 | 0.20 | 0.20 | 58 | 1008.9 |
| 20260504173503 | 73 | 217 | 5.0 | 17.0 | 0.00 | 0.20 | 0.20 | 60 | 1009.0 |
| 20260504173003 | 72 | 207 | 7.0 | 19.0 | 0.00 | 0.20 | 0.20 | 59 | 1009.1 |
| 20260504172503 | 72 | 213 | 7.0 | 19.0 | 0.00 | 0.20 | 0.20 | 56 | 1009.2 |
| 20260504172003 | 72 | 219 | 6.0 | 18.0 | 0.00 | 0.20 | 0.20 | 56 | 1009.2 |
| 20260504171524 | 72 | 218 | 5.0 | 18.0 | 0.00 | 0.20 | 0.20 | 60 | 1009.2 |
| 20260504171003 | 72 | 213 | 5.0 | 13.0 | 0.00 | 0.20 | 0.20 | 62 | 1009.2 |
| 20260504170503 | 71 | 208 | 5.0 | 13.0 | 0.00 | 0.20 | 0.20 | 61 | 1009.3 |
| 20260504151003 | 59 | 182 | 4.0 | 12.0 | 0.02 | 0.20 | 0.20 | 84 | 1009.8 |
| 20260504150503 | 57 | 178 | 4.0 | 13.0 | 0.04 | 0.20 | 0.20 | 87 | 1009.8 |
| 20260504141003 | 60 | 249 | 6.0 | 21.0 | 0.08 | 0.18 | 0.18 | 79 | 1010.1 |
| 20260504140524 | 60 | 259 | 7.0 | 18.0 | 0.06 | 0.16 | 0.16 | 77 | 1010.0 |
| 20260504130503 | 54 | 238 | 2.0 | 8.0 | 0.02 | 0.10 | 0.10 | 85 | 1011.5 |
| 20260504110503 | 52 | 178 | 3.0 | 8.0 | 0.02 | 0.08 | 0.08 | 89 | 1010.4 |
| 20260504100503 | 51 | 204 | 3.0 | 10.0 | 0.06 | 0.06 | 0.06 | 85 | 1011.5 |
| 20260504082003 | 54 | 192 | 2.0 | 7.0 | 0.00 | 0.00 | 0.00 | 65 | 1011.7 |
| 20260504081524 | 54 | 189 | 2.0 | 7.0 | 0.00 | 0.00 | 0.00 | 64 | 1011.7 |
| 20260504081003 | 54 | 192 | 2.0 | 7.0 | 0.00 | 0.00 | 0.00 | 64 | 1011.7 |
| 20260504080503 | 54 | 189 | 2.0 | 7.0 | 0.00 | 0.00 | 0.00 | 64 | 1011.9 |
| 20260504050503 | 54 | 179 | 2.0 | 6.0 | 0.00 | 0.00 | 0.00 | 60 | 1013.4 |
| 20260504050003 | 54 | 184 | 2.0 | 6.0 | 0.00 | 0.00 | 0.00 | 60 | 1013.4 |
| 20260504045503 | 54 | 181 | 2.0 | 6.0 | 0.00 | 0.00 | 0.00 | 60 | 1013.3 |
| 20260504045003 | 54 | 184 | 2.0 | 6.0 | 0.00 | 0.00 | 0.00 | 59 | 1013.4 |
| 20260504044503 | 54 | 191 | 3.0 | 6.0 | 0.00 | 0.00 | 0.00 | 59 | 1013.5 |
| 20260504044003 | 54 | 191 | 2.0 | 7.0 | 0.00 | 0.00 | 0.00 | 59 | 1013.4 |
| 20260504043503 | 54 | 193 | 2.0 | 7.0 | 0.00 | 0.00 | 0.00 | 58 | 1013.5 |
| 20260504043003 | 55 | 189 | 2.0 | 6.0 | 0.00 | 0.00 | 0.00 | 59 | 1013.5 |
| 20260504042503 | 55 | 179 | 2.0 | 6.0 | 0.00 | 0.00 | 0.00 | 57 | 1013.5 |
| 20260504042003 | 55 | 182 | 2.0 | 5.0 | 0.00 | 0.00 | 0.00 | 57 | 1013.5 |
| 20260504041503 | 55 | 188 | 2.0 | 5.0 | 0.00 | 0.00 | 0.00 | 56 | 1013.7 |
| 20260504041003 | 55 | 191 | 2.0 | 6.0 | 0.00 | 0.00 | 0.00 | 57 | 1013.8 |
| 20260504040503 | 56 | 196 | 2.0 | 6.0 | 0.00 | 0.00 | 0.00 | 55 | 1013.8 |
| 20260504040003 | 56 | 191 | 2.0 | 7.0 | 0.00 | 0.00 | 0.00 | 55 | 1013.9 |
| 20260504035503 | 56 | 188 | 2.0 | 7.0 | 0.00 | 0.00 | 0.00 | 55 | 1013.9 |
| 20260504035003 | 56 | 192 | 2.0 | 7.0 | 0.00 | 0.00 | 0.00 | 55 | 1014.1 |
| 20260504034503 | 56 | 191 | 2.0 | 6.0 | 0.00 | 0.00 | 0.00 | 56 | 1014.0 |
| 20260504034003 | 56 | 192 | 2.0 | 6.0 | 0.00 | 0.00 | 0.00 | 56 | 1014.1 |
| 20260504033503 | 56 | 191 | 2.0 | 6.0 | 0.00 | 0.00 | 0.00 | 56 | 1014.1 |
| 20260504033003 | 56 | 193 | 2.0 | 7.0 | 0.00 | 0.00 | 0.00 | 56 | 1014.1 |
| 20260504032503 | 56 | 196 | 2.0 | 8.0 | 0.00 | 0.00 | 0.00 | 57 | 1013.9 |
| 20260504032003 | 56 | 193 | 3.0 | 8.0 | 0.00 | 0.00 | 0.00 | 57 | 1013.8 |
| 20260504031503 | 56 | 188 | 2.0 | 5.0 | 0.00 | 0.00 | 0.00 | 57 | 1013.9 |
| 20260504031003 | 55 | 191 | 2.0 | 5.0 | 0.00 | 0.00 | 0.00 | 58 | 1014.0 |
| 20260504030524 | 55 | 196 | 2.0 | 6.0 | 0.00 | 0.00 | 0.00 | 59 | 1014.3 |
| 20260504030003 | 55 | 193 | 2.0 | 6.0 | 0.00 | 0.00 | 0.00 | 58 | 1014.4 |
| 20260504025524 | 55 | 192 | 2.0 | 6.0 | 0.00 | 0.00 | 0.00 | 59 | 1014.4 |
| 20260504025003 | 55 | 190 | 2.0 | 5.0 | 0.00 | 0.00 | 0.00 | 58 | 1014.5 |
| 20260504024503 | 55 | 194 | 1.0 | 4.0 | 0.00 | 0.00 | 0.00 | 59 | 1014.5 |
| 20260504024003 | 55 | 192 | 1.0 | 4.0 | 0.00 | 0.00 | 0.00 | 58 | 1014.5 |
| 20260504023503 | 55 | 192 | 1.0 | 4.0 | 0.00 | 0.00 | 0.00 | 58 | 1014.5 |
| 20260504023003 | 55 | 195 | 1.0 | 4.0 | 0.00 | 0.00 | 0.00 | 58 | 1014.6 |
| 20260504022503 | 55 | 189 | 1.0 | 3.0 | 0.00 | 0.00 | 0.00 | 57 | 1014.7 |
| 20260504022003 | 56 | 173 | 0.0 | 2.0 | 0.00 | 0.00 | 0.00 | 57 | 1014.8 |
| 20260504021503 | 56 | 165 | 1.0 | 2.0 | 0.00 | 0.00 | 0.00 | 58 | 1014.7 |
| 20260504021003 | 56 | 168 | 1.0 | 3.0 | 0.00 | 0.00 | 0.00 | 57 | 1014.7 |
| 20260504020503 | 56 | 175 | 0.0 | 3.0 | 0.00 | 0.00 | 0.00 | 56 | 1014.6 |
| 20260504020003 | 56 | 177 | 0.0 | 2.0 | 0.00 | 0.00 | 0.00 | 56 | 1014.6 |
| 20260504015503 | 56 | 193 | 1.0 | 2.0 | 0.00 | 0.00 | 0.00 | 55 | 1014.6 |
| 20260504015003 | 56 | 193 | 1.0 | 3.0 | 0.00 | 0.00 | 0.00 | 55 | 1014.6 |
| 20260504014503 | 56 | 191 | 1.0 | 3.0 | 0.00 | 0.00 | 0.00 | 55 | 1014.5 |
| 20260504014003 | 56 | 210 | 1.0 | 3.0 | 0.00 | 0.00 | 0.00 | 55 | 1014.5 |
| 20260504013524 | 56 | 215 | 1.0 | 4.0 | 0.00 | 0.00 | 0.00 | 54 | 1014.5 |
| 20260504013003 | 57 | 216 | 1.0 | 4.0 | 0.00 | 0.00 | 0.00 | 54 | 1014.4 |
| 20260504012503 | 57 | 226 | 1.0 | 4.0 | 0.00 | 0.00 | 0.00 | 54 | 1014.4 |
| 20260504012003 | 57 | 222 | 1.0 | 4.0 | 0.00 | 0.00 | 0.00 | 53 | 1014.2 |
| 20260504011524 | 57 | 206 | 1.0 | 4.0 | 0.00 | 0.00 | 0.00 | 54 | 1014.0 |
| 20260504011024 | 57 | 206 | 2.0 | 5.0 | 0.00 | 0.00 | 0.00 | 52 | 1014.1 |
| 20260504010503 | 57 | 215 | 2.0 | 5.0 | 0.00 | 0.00 | 0.00 | 53 | 1014.0 |
| 20260504010024 | 57 | 216 | 1.0 | 5.0 | 0.00 | 0.00 | 0.00 | 52 | 1013.9 |
| 20260504005503 | 57 | 203 | 1.0 | 7.0 | 0.00 | 0.00 | 0.00 | 52 | 1013.8 |
| 20260504005003 | 58 | 200 | 2.0 | 7.0 | 0.00 | 0.00 | 0.00 | 51 | 1013.7 |
| 20260504004503 | 58 | 201 | 2.0 | 6.0 | 0.00 | 0.00 | 0.00 | 51 | 1013.6 |
| 20260504004003 | 58 | 200 | 2.0 | 6.0 | 0.00 | 0.00 | 0.00 | 50 | 1013.6 |
| 20260504003503 | 58 | 193 | 2.0 | 6.0 | 0.00 | 0.00 | 0.00 | 50 | 1013.6 |
| 20260504003003 | 59 | 191 | 2.0 | 5.0 | 0.00 | 0.00 | 0.00 | 49 | 1013.5 |
| 20260504002503 | 59 | 196 | 2.0 | 5.0 | 0.00 | 0.00 | 0.00 | 48 | 1013.5 |
| 20260504002003 | 59 | 195 | 2.0 | 7.0 | 0.00 | 0.00 | 0.00 | 47 | 1013.6 |
| 20260504001503 | 59 | 200 | 2.0 | 7.0 | 0.00 | 0.00 | 0.00 | 47 | 1013.6 |
| 20260504001003 | 60 | 212 | 2.0 | 7.0 | 0.00 | 0.00 | 0.00 | 47 | 1013.7 |
| 20260504000503 | 60 | 208 | 2.0 | 6.0 | 0.00 | 0.00 | 0.00 | 47 | 1013.8 |
| 20260504000003 | 60 | 203 | 2.0 | 5.0 | 0.00 | 0.00 | 0.00 | 46 | 1013.9 |
| 20260503235524 | 60 | 203 | 2.0 | 6.0 | 0.00 | 0.00 | 0.00 | 47 | 1013.8 |
| 20260503235003 | 61 | 200 | 1.0 | 6.0 | 0.00 | 0.00 | 0.00 | 45 | 1013.7 |
| 20260503234503 | 61 | 202 | 1.0 | 6.0 | 0.00 | 0.00 | 0.00 | 46 | 1013.9 |
| 20260503234024 | 61 | 206 | 1.0 | 6.0 | 0.00 | 0.00 | 0.00 | 45 | 1014.1 |
| 20260503233503 | 61 | 222 | 2.0 | 5.0 | 0.00 | 0.00 | 0.00 | 46 | 1014.1 |
| 20260503233003 | 61 | 226 | 2.0 | 5.0 | 0.00 | 0.00 | 0.00 | 43 | 1014.1 |
| 20260503232503 | 61 | 223 | 2.0 | 5.0 | 0.00 | 0.00 | 0.00 | 43 | 1014.1 |
| 20260503232024 | 61 | 231 | 3.0 | 7.0 | 0.00 | 0.00 | 0.00 | 44 | 1014.3 |
| 20260503231503 | 61 | 236 | 4.0 | 9.0 | 0.00 | 0.00 | 0.00 | 41 | 1014.4 |
| 20260503231003 | 62 | 236 | 4.0 | 10.0 | 0.00 | 0.00 | 0.00 | 42 | 1014.5 |
| 20260503230524 | 62 | 238 | 4.0 | 10.0 | 0.00 | 0.00 | 0.00 | 41 | 1014.5 |
| 20260503230003 | 62 | 230 | 4.0 | 9.0 | 0.00 | 0.00 | 0.00 | 40 | 1014.5 |
| 20260503225503 | 63 | 212 | 3.0 | 8.0 | 0.00 | 0.00 | 0.00 | 39 | 1014.7 |
| 20260503225003 | 63 | 212 | 2.0 | 8.0 | 0.00 | 0.00 | 0.00 | 42 | 1014.5 |
| 20260503224503 | 63 | 212 | 3.0 | 8.0 | 0.00 | 0.00 | 0.00 | 43 | 1014.6 |
| 20260503224003 | 63 | 223 | 4.0 | 10.0 | 0.00 | 0.00 | 0.00 | 41 | 1014.8 |
| 20260503223503 | 63 | 233 | 4.0 | 10.0 | 0.00 | 0.00 | 0.00 | 40 | 1015.0 |
| 20260503223003 | 63 | 232 | 3.0 | 9.0 | 0.00 | 0.00 | 0.00 | 42 | 1015.0 |
| 20260503222524 | 63 | 230 | 3.0 | 7.0 | 0.00 | 0.00 | 0.00 | 40 | 1015.1 |
| 20260503222024 | 62 | 234 | 4.0 | 11.0 | 0.00 | 0.00 | 0.00 | 40 | 1015.0 |
| 20260503221503 | 63 | 227 | 5.0 | 13.0 | 0.00 | 0.00 | 0.00 | 37 | 1015.0 |
| 20260503221003 | 63 | 225 | 5.0 | 13.0 | 0.00 | 0.00 | 0.00 | 36 | 1015.1 |
| 20260503220503 | 64 | 229 | 4.0 | 11.0 | 0.00 | 0.00 | 0.00 | 38 | 1015.2 |
| 20260503220003 | 64 | 226 | 5.0 | 14.0 | 0.00 | 0.00 | 0.00 | 38 | 1015.3 |
| 20260503215503 | 64 | 224 | 5.0 | 14.0 | 0.00 | 0.00 | 0.00 | 39 | 1015.2 |
| 20260503215003 | 64 | 220 | 5.0 | 10.0 | 0.00 | 0.00 | 0.00 | 37 | 1015.3 |
| 20260503214503 | 64 | 222 | 5.0 | 13.0 | 0.00 | 0.00 | 0.00 | 38 | 1015.3 |
| 20260503214003 | 64 | 226 | 5.0 | 13.0 | 0.00 | 0.00 | 0.00 | 35 | 1015.1 |
| 20260503213524 | 64 | 230 | 4.0 | 12.0 | 0.00 | 0.00 | 0.00 | 37 | 1015.1 |
| 20260503213003 | 64 | 230 | 5.0 | 15.0 | 0.00 | 0.00 | 0.00 | 35 | 1015.1 |
| 20260503212503 | 64 | 225 | 6.0 | 14.0 | 0.00 | 0.00 | 0.00 | 36 | 1015.5 |
| 20260503212003 | 64 | 230 | 6.0 | 14.0 | 0.00 | 0.00 | 0.00 | 35 | 1015.3 |
| 20260503211503 | 64 | 227 | 5.0 | 14.0 | 0.00 | 0.00 | 0.00 | 34 | 1015.5 |
| 20260503211024 | 64 | 210 | 4.0 | 11.0 | 0.00 | 0.00 | 0.00 | 39 | 1015.5 |
| 20260503210503 | 64 | 209 | 5.0 | 15.0 | 0.00 | 0.00 | 0.00 | 38 | 1015.3 |
| 20260503210003 | 64 | 204 | 5.0 | 15.0 | 0.00 | 0.00 | 0.00 | 36 | 1015.4 |
| 20260503205503 | 64 | 211 | 5.0 | 15.0 | 0.00 | 0.00 | 0.00 | 37 | 1015.6 |
| 20260503205003 | 64 | 224 | 6.0 | 15.0 | 0.00 | 0.00 | 0.00 | 38 | 1015.5 |
| 20260503204503 | 64 | 217 | 5.0 | 14.0 | 0.00 | 0.00 | 0.00 | 39 | 1015.5 |
| 20260503204003 | 64 | 203 | 5.0 | 14.0 | 0.00 | 0.00 | 0.00 | 39 | 1015.7 |
| 20260503203503 | 64 | 193 | 5.0 | 14.0 | 0.00 | 0.00 | 0.00 | 38 | 1015.8 |
| 20260503203024 | 64 | 209 | 5.0 | 14.0 | 0.00 | 0.00 | 0.00 | 40 | 1016.0 |
| 20260503202503 | 64 | 228 | 4.0 | 12.0 | 0.00 | 0.00 | 0.00 | 41 | 1016.3 |
| 20260503202003 | 64 | 203 | 4.0 | 12.0 | 0.00 | 0.00 | 0.00 | 39 | 1016.4 |
| 20260503201503 | 64 | 198 | 4.0 | 12.0 | 0.00 | 0.00 | 0.00 | 41 | 1016.5 |
| 20260503201003 | 64 | 218 | 4.0 | 16.0 | 0.00 | 0.00 | 0.00 | 42 | 1016.7 |
| 20260503200503 | 64 | 226 | 4.0 | 16.0 | 0.00 | 0.00 | 0.00 | 41 | 1016.8 |
| 20260503200003 | 63 | 230 | 4.0 | 14.0 | 0.00 | 0.00 | 0.00 | 40 | 1016.9 |
| 20260503195503 | 63 | 236 | 4.0 | 15.0 | 0.00 | 0.00 | 0.00 | 37 | 1017.0 |